Weather in Fajardo

Puerto Rico     18°19′25″N   65°39′18″W
temp.,
°C
wind,
m/s
gust,
m/s
humid.,
%
clouds,
%
prec.,
mm/h
press.,
hPa
HPBL,
m
20 january, wed
wed2023:00+22ne2595100 1.5 1018173
02:00+22ene3793100 3.9 1017276
05:00+21ene3792100 0.5 1015228
08:00+22ene379198 0.6 1017405
11:00+25ene577971 0.4 1017866
14:00+26e567482 1.3 10151039
17:00+24e358179 0.0 1013769
20:00+21ene248976 0.0 1016123
21 january, thu
thu2123:00+21nne129084 0.0 1016104
02:00+21n239170 0.1 101689
05:00+20nne129322 0.0 101487
08:00+22ene138832 0.1 1016159
11:00+26ene337126 0.0 1017972
14:00+26e336713 0.0 10151010
17:00+25e33777 0.0 1014710
20:00+21ene12899 0.0 1015100
22 january, fri
fri2223:00+21ne12899 0.0 1016101
02:00+20ne128912 0.0 101598
05:00+20ene12880 0.0 1014100
08:00+22ene128613 0.0 1016147
11:00+25ene337639 0.3 1017802
14:00+26e337034 0.8 1016966
17:00+24e34766 0.0 1015801
20:00+21ene238931 0.0 1016107
23 january, sat
sat2323:00+21ne239160 0.0 1016116
02:00+20ne239154 0.1 1016105
05:00+20ene129120 0.1 1015101
08:00+22ne128627 0.1 1017125
11:00+25e347538 0.3 1018860
14:00+26ene447439 0.9 1016875
17:00+24ene348272 0.7 1015668
20:00+21ne229250 0.7 101697
24 january, sun
sun2423:00+21ne239223 0.1 1017110
02:00+20ne239219 0.1 1016108
05:00+20nne129338 0.2 101596
08:00+22nne128842 0.4 1017129
11:00+25ne347860 0.4 1018807
14:00+25ene457054 0.8 1016958
17:00+24ene357620 0.1 1014809
20:00+20ne248916 0.1 1016138